Regional Weather Roundup
Issued by NWS Sioux Falls, SD

Home | Current Version | Previous Version | Text Only | Print | Product List | Glossary Off
Versions: 1 2 3 4 5 6 7 8 9 10 11 12 13 14 15 16 17 18 19 20 21 22 23 24 25 26 27 28 29 30 31 32 33 34 35 36 37 38 39 40 41 42 43 44 45 46 47 48 49 50

000
ASUS43 KFSD 280910
RWRFSD

WEATHER ROUNDUP FOR SE SOUTH DAKOTA/SW MINNESOTA/NW IOWA
NATIONAL WEATHER SERVICE SIOUX FALLS SD
400 AM CDT MON JUL 28 2014

NOTE: "FAIR" INDICATES FEW OR NO CLOUDS BELOW 12,000 FEET WITH NO
SIGNIFICANT WEATHER AND OR OBSTRUCTIONS TO VISIBILITY.


SDZ038>040-050-052>070-281000-
SOUTHEAST SOUTH DAKOTA

CITY           SKY/WX    TMP DP  RH WIND       PRES   REMARKS
CHAMBERLAIN    CLEAR     52  51  97 W5        30.30S
HURON          CLEAR     50  49  96 NW6       30.26S
MADISON        CLOUDY    55  55 100 NW7       30.25S
MITCHELL       CLEAR     55  53  93 NW7       30.27S
SIOUX FALLS    PTCLDY    56  53  90 W8        30.24R
WINNER         FAIR      55  52  89 W5        30.32R
YANKTON        CLEAR     55  54  94 NW8       30.25S
$$

MNZ071-072-080-081-089-090-097-098-281000-
SOUTHWEST MINNESOTA

CITY           SKY/WX    TMP DP  RH WIND       PRES   REMARKS
FAIRMONT       CLOUDY    61  55  82 NW6       30.18R
JACKSON        CLOUDY    61  55  82 NW7       30.19S
LUVERNE        MOCLDY    57  54  88 N3        30.23S
MARSHALL       CLOUDY    59  55  88 NW9       30.20S
MONTEVIDEO     CLOUDY    61  59  94 N6        30.22R
PIPESTONE      CLOUDY    57  54  88 N8        30.23R
REDWOOD FALLS  CLOUDY    62  60  93 NW5       30.19R
TRACY          CLOUDY    60  58  90 NW7       30.22R
WINDOM         CLOUDY    61  57  88 NW8       30.19S
WORTHINGTON    PTCLDY    57  54  88 NW9       30.22S
$$

IAZ001>003-012>014-020>022-031-032-NEZ013-014-SDZ071-281000-
NORTHWEST IOWA

CITY           SKY/WX    TMP DP  RH WIND       PRES   REMARKS
CHEROKEE       CLEAR     57  56  96 N6        30.20S
DENISON        CLEAR     57  55  94 N5        30.18R
ESTHERVILLE    CLOUDY    58  57  97 NW6       30.18R
LE MARS        CLEAR     57  55  94 CALM      30.23S
ORANGE CITY    CLEAR     57  54  88 NW8       30.22S
SHELDON        MOCLDY    54  54 100 CALM      30.21R
SIOUX CITY     CLEAR     59  56  89 N6        30.22S
SPENCER        CLOUDY    57  55  93 NW7       30.19S
STORM LAKE     CLEAR     55  55 100 NW9       30.20S
$$

ABBREVIATIONS USED IN REMARKS
   TC - TEMPERATURE IN CELSIUS
  WCI - WIND CHILL INDEX
   HX - HEAT INDEX
  VSB - VISIBILITY




USA.gov is the U.S. government's official web portal to all federal, state and local government web resources and services.